Weather History for Williams, AZ

Change the Weather History Date:

Tuesday, March 18, 2014

  Actual Average (KFLG) Record (KFLG)
Temperature  
Mean Temperature 36 °F 37 °F  
Max Temperature 50 °F 51 °F 68 °F (1978)
Min Temperature 23 °F 24 °F -1 °F (1954)
Degree Days  
Heating Degree Days 28 28  
Month to date heating degree days 524  
Since 1 July heating degree days 5363  
Cooling Degree Days 0 0  
Month to date cooling degree days 0  
Year to date cooling degree days 0  
Moisture  
Dew Point -5 °F    
Average Humidity 21    
Maximum Humidity 40    
Minimum Humidity 6    
Precipitation  
Precipitation 0.00 in 0.07 in 1.39 in (2012)
Month to date precipitation 1.33  
Year to date precipitation 5.54  
Snow  
Snow 0.00 in 0.70 in 19.50 in (2012)
Month to date snowfall 13.4  
Since 1 July snowfall 86.6  
Snow Depth -    
Sea Level Pressure  
Sea Level Pressure 30.03 in    
Wind  
Wind Speed 6 mph (NNW)    
Max Wind Speed 17 mph    
Max Gust Speed 20 mph    
Visibility 10 miles    
Events      
T = Trace of Precipitation, MM = Missing Value Source: NWS Daily Summary

Daily Weather History Graph

Daily Weather History Graph

Search for Another Location

Airport:

Trip Planner

Search our weather history database for the weather conditions in past years. The results will help you decide how hot, cold, wet, or windy it might be!

Date:

Astronomy

Mar. 18, 2014 Rise Set
Actual Time 6:35 AM MST 6:38 PM MST
Civil Twilight 6:09 AM MST 7:04 PM MST
Nautical Twilight 5:40 AM MST 7:33 PM MST
Astronomical Twilight 5:10 AM MST 8:03 PM MST
Moon 8:53 PM MST (3/18) 7:31 AM MST (3/18)
Length of Visible Light 12h 54m
Length of Day
12h 03m
Waning Gibbous, 96% of the Moon is Illuminated
Mar 18
Waning Gibbous
Mar 23
Last Quarter
Mar 30
New
Apr 7
First Quarter
Apr 15
Full

Hourly Weather History & Observations

Time (MST) Temp. Windchill Dew Point Humidity Pressure Visibility Wind Dir Wind Speed Gust Speed Precip Events Conditions
12:15 AM 37.4 °F - 6.8 °F 28% 29.93 in 10.0 mi Calm Calm - N/A   Clear
12:35 AM 35.6 °F - 6.8 °F 30% 29.95 in 10.0 mi Calm Calm - N/A   Clear
12:55 AM 37.4 °F 34.9 °F 8.6 °F 30% 29.95 in 10.0 mi NNW 3.5 mph - N/A   Clear
1:15 AM 35.6 °F 30.7 °F 8.6 °F 33% 29.96 in 10.0 mi NW 5.8 mph - N/A   Clear
1:35 AM 32.0 °F 27.5 °F 6.8 °F 35% 29.96 in 10.0 mi NNW 4.6 mph - N/A   Clear
1:55 AM 32.0 °F 26.4 °F 6.8 °F 35% 29.96 in 10.0 mi NNW 5.8 mph - N/A   Clear
2:15 AM 32.0 °F 24.2 °F 5.0 °F 32% 29.96 in 10.0 mi NW 9.2 mph - N/A   Clear
2:35 AM 30.2 °F 21.3 °F 5.0 °F 34% 29.96 in 10.0 mi NNW 10.4 mph - N/A   Clear
2:55 AM 28.4 °F 21.2 °F 5.0 °F 37% 29.96 in 10.0 mi NNW 6.9 mph - N/A   Clear
3:15 AM 26.6 °F 18.2 °F 5.0 °F 40% 29.96 in 10.0 mi NW 8.1 mph - N/A   Clear
3:35 AM 26.6 °F 19.1 °F 5.0 °F 40% 29.95 in 10.0 mi NNW 6.9 mph - N/A   Clear
3:55 AM 26.6 °F 19.1 °F 3.2 °F 37% 29.96 in 10.0 mi NNE 6.9 mph - N/A   Clear
4:15 AM 28.4 °F 20.4 °F 3.2 °F 34% 29.97 in 10.0 mi North 8.1 mph - N/A   Clear
4:35 AM 26.6 °F 20.0 °F 3.2 °F 37% 29.96 in 10.0 mi North 5.8 mph - N/A   Clear
4:55 AM 26.6 °F 22.6 °F 1.4 °F 34% 29.97 in 10.0 mi North 3.5 mph - N/A   Clear
5:15 AM 26.6 °F 21.2 °F 1.4 °F 34% 29.98 in 10.0 mi NW 4.6 mph - N/A   Clear
5:35 AM 24.8 °F 19.1 °F 1.4 °F 36% 29.97 in 10.0 mi North 4.6 mph - N/A   Clear
5:55 AM 24.8 °F 17.9 °F -0.4 °F 34% 29.98 in 10.0 mi NNW 5.8 mph - N/A   Clear
6:15 AM 24.8 °F 16.9 °F -0.4 °F 34% 29.98 in 10.0 mi North 6.9 mph - N/A   Clear
6:35 AM 24.8 °F 16.1 °F -0.4 °F 34% 29.98 in 10.0 mi North 8.1 mph - N/A   Clear
6:55 AM 23.0 °F 18.4 °F -0.4 °F 36% 29.99 in 10.0 mi North 3.5 mph - N/A   Clear
7:15 AM 23.0 °F - -0.4 °F 36% 30.00 in 10.0 mi Calm Calm - N/A   Clear
7:35 AM 24.8 °F 20.5 °F 1.4 °F 36% 30.00 in 10.0 mi ENE 3.5 mph - N/A   Clear
7:55 AM 28.4 °F 22.2 °F -0.4 °F 29% 30.01 in 10.0 mi NNE 5.8 mph - N/A   Clear
8:15 AM 32.0 °F 26.4 °F -0.4 °F 25% 30.02 in 10.0 mi NE 5.8 mph - N/A   Clear
8:35 AM 33.8 °F 25.8 °F -0.4 °F 23% 30.03 in 10.0 mi NE 10.4 mph - N/A   Clear
8:55 AM 35.6 °F 25.5 °F -2.2 °F 20% 30.03 in 10.0 mi NNE 17.3 mph - N/A   Clear
9:15 AM 35.6 °F 26.6 °F -4.0 °F 18% 30.03 in 10.0 mi NNE 13.8 mph - N/A   Clear
9:35 AM 37.4 °F 30.8 °F -5.8 °F 16% 30.04 in 10.0 mi NNE 9.2 mph 17.3 mph N/A   Clear
9:55 AM 39.2 °F 31.6 °F -7.6 °F 14% 30.04 in 10.0 mi North 12.7 mph 18.4 mph N/A   Clear
10:15 AM 39.2 °F 31.2 °F -13.0 °F 10% 30.04 in 10.0 mi NNE 13.8 mph 18.4 mph N/A   Clear
10:35 AM 41.0 °F 34.3 °F -9.4 °F 12% 30.04 in 10.0 mi North 11.5 mph - N/A   Clear
10:55 AM 41.0 °F 34.7 °F -13.0 °F 10% 30.04 in 10.0 mi NE 10.4 mph 18.4 mph N/A   Clear
11:15 AM 42.8 °F 36.6 °F -9.4 °F 11% 30.04 in 10.0 mi North 11.5 mph 19.6 mph N/A   Clear
11:35 AM 42.8 °F 38.6 °F -9.4 °F 11% 30.04 in 10.0 mi NNE 6.9 mph - N/A   Clear
11:55 AM 42.8 °F 37.0 °F -9.4 °F 11% 30.04 in 10.0 mi NE 10.4 mph - N/A   Clear
12:15 PM 46.4 °F 41.9 °F -9.4 °F 9% 30.04 in 10.0 mi North 9.2 mph 16.1 mph N/A   Clear
12:35 PM 46.4 °F 42.4 °F -11.2 °F 9% 30.04 in 10.0 mi NW 8.1 mph - N/A   Clear
12:55 PM 46.4 °F 43.5 °F -13.0 °F 8% 30.04 in 10.0 mi WNW 5.8 mph - N/A   Clear
1:15 PM 44.6 °F 41.4 °F -16.6 °F 7% 30.03 in 10.0 mi SSW 5.8 mph - N/A   Clear
1:35 PM 46.4 °F 44.3 °F -14.8 °F 7% 30.03 in 10.0 mi WNW 4.6 mph - N/A   Clear
1:55 PM 48.2 °F - -14.8 °F 7% 30.02 in 10.0 mi NNW 5.8 mph - N/A   Clear
2:15 PM 48.2 °F - -16.6 °F 6% 30.01 in 10.0 mi WNW 8.1 mph - N/A   Clear
2:35 PM 50.0 °F - -11.2 °F 8% 30.01 in 10.0 mi NNW 9.2 mph - N/A   Clear
2:55 PM 50.0 °F - -13.0 °F 7% 30.01 in 10.0 mi NNW 8.1 mph - N/A   Clear
3:15 PM 50.0 °F - -13.0 °F 7% 30.01 in 10.0 mi West 8.1 mph - N/A   Clear
3:35 PM 50.0 °F - -13.0 °F 7% 30.01 in 10.0 mi NW 6.9 mph - N/A   Clear
3:55 PM 50.0 °F - -13.0 °F 7% 30.01 in 10.0 mi WNW 9.2 mph - N/A   Clear
4:15 PM 48.2 °F - -13.0 °F 7% 30.01 in 10.0 mi NNW 10.4 mph - N/A   Clear
4:35 PM 50.0 °F - -11.2 °F 8% 30.01 in 10.0 mi NNW 9.2 mph - N/A   Clear
4:55 PM 48.2 °F - -11.2 °F 8% 30.02 in 10.0 mi NW 11.5 mph - N/A   Clear
5:15 PM 48.2 °F - -11.2 °F 8% 30.02 in 10.0 mi NW 9.2 mph - N/A   Clear
5:35 PM 48.2 °F - -11.2 °F 8% 30.03 in 10.0 mi WNW 10.4 mph - N/A   Clear
5:55 PM 46.4 °F 42.9 °F -11.2 °F 9% 30.03 in 10.0 mi WNW 6.9 mph - N/A   Clear
6:15 PM 44.6 °F 40.2 °F -13.0 °F 9% 30.04 in 10.0 mi NW 8.1 mph - N/A   Clear
6:35 PM 41.0 °F 35.8 °F -13.0 °F 10% 30.05 in 10.0 mi NW 8.1 mph - N/A   Clear
6:55 PM 39.2 °F 35.0 °F -13.0 °F 10% 30.05 in 10.0 mi NNW 5.8 mph - N/A   Clear
7:15 PM 37.4 °F 32.8 °F -13.0 °F 11% 30.06 in 10.0 mi NW 5.8 mph - N/A   Clear
7:35 PM 35.6 °F 31.7 °F -13.0 °F 12% 30.07 in 10.0 mi North 4.6 mph - N/A   Clear
7:55 PM 35.6 °F 32.8 °F -13.0 °F 12% 30.08 in 10.0 mi North 3.5 mph - N/A   Clear
8:15 PM 35.6 °F 30.7 °F -14.8 °F 11% 30.09 in 10.0 mi NNW 5.8 mph - N/A   Clear
8:35 PM 32.0 °F 28.7 °F -9.4 °F 17% 30.10 in 10.0 mi SE 3.5 mph - N/A   Clear
8:55 PM 28.4 °F 24.6 °F -7.6 °F 21% 30.10 in 10.0 mi SE 3.5 mph - N/A   Clear
9:15 PM 28.4 °F - -7.6 °F 21% 30.11 in 10.0 mi Calm Calm - N/A   Clear
9:35 PM 28.4 °F - -9.4 °F 19% 30.11 in 10.0 mi Calm Calm - N/A   Clear
9:55 PM 24.8 °F 20.5 °F -7.6 °F 24% 30.11 in 10.0 mi South 3.5 mph - N/A   Clear
10:15 PM 24.8 °F 19.1 °F -4.0 °F 28% 30.12 in 10.0 mi SSE 4.6 mph - N/A   Clear
10:35 PM 23.0 °F 14.7 °F -4.0 °F 31% 30.12 in 10.0 mi SSE 6.9 mph - N/A   Clear
10:55 PM 23.0 °F 17.0 °F -4.0 °F 31% 30.13 in 10.0 mi SE 4.6 mph - N/A   Clear
11:15 PM 23.0 °F 18.4 °F -2.2 °F 33% 30.13 in 10.0 mi SE 3.5 mph - N/A   Clear
11:35 PM 23.0 °F 18.4 °F -4.0 °F 31% 30.14 in 10.0 mi ESE 3.5 mph - N/A   Clear
11:55 PM 28.4 °F 22.2 °F -9.4 °F 19% 30.14 in 10.0 mi North 5.8 mph - N/A   Clear